OCN4WJ EDDF-LEPA

Flight info

Callsign OCN4WJ
Flight time 1h 51m
Altitude 35000
Route ANEKI2L/18 ANEKI Y163 HERBI Y164 MOPAN DCT LUTIX/N0439F370 DCT BENOT DCT NEMOS DCT GEVEA DCT INCUS DCT BALSI DCT RETNO DCT TUPOX DCT MTG DCT DIVKO DCT VATIR DCT PIVUS N852 VERSO L129 LUNIK
Aircraft A320/M-SDE2E3FGIJ1LORWXYZ/HB1

Departure

Time 2026-05-04 07:59
Airport Frankfurt Main Airport (EDDF)

Arrival

Time 2026-05-04 09:51
Airport Palma de Mallorca Airport (LEPA)
Time Latitude Longitude Altitude Speed Heading
2026-05-04 07:22 50.03669 8.52430 351 ft 0 kts 339°
2026-05-04 07:45 50.03654 8.52439 337 ft 4 kts 339°
2026-05-04 07:45 50.03629 8.52454 341 ft 4 kts 339°
2026-05-04 07:46 50.03608 8.52466 341 ft 4 kts 323°
2026-05-04 07:46 50.03596 8.52497 336 ft 4 kts 276°
2026-05-04 07:46 50.03595 8.52534 341 ft 1 kts 270°
2026-05-04 07:46 50.03595 8.52535 341 ft 0 kts 270°
2026-05-04 07:50 50.03595 8.52508 338 ft 6 kts 267°
2026-05-04 07:50 50.03584 8.52446 340 ft 5 kts 250°
2026-05-04 07:50 50.03571 8.52390 334 ft 6 kts 250°
2026-05-04 07:50 50.03540 8.52316 336 ft 10 kts 213°
2026-05-04 07:51 50.03470 8.52305 333 ft 11 kts 182°
2026-05-04 07:51 50.03383 8.52300 331 ft 14 kts 182°
2026-05-04 07:51 50.03344 8.52311 333 ft 1 kts 89°
2026-05-04 07:51 50.03391 8.52359 330 ft 13 kts 48°
2026-05-04 07:52 50.03399 8.52456 334 ft 2 kts 91°
2026-05-04 07:52 50.03399 8.52458 334 ft 0 kts 91°
2026-05-04 07:54 50.03362 8.52594 335 ft 0 kts 180°
2026-05-04 07:58 50.03361 8.52594 335 ft 1 kts 180°
2026-05-04 07:58 50.03208 8.52594 335 ft 57 kts 179°
2026-05-04 07:59 50.02583 8.52601 334 ft 120 kts 180°
2026-05-04 07:59 50.01580 8.52612 337 ft 167 kts 179°
2026-05-04 07:59 50.00409 8.52632 930 ft 168 kts 180°
2026-05-04 07:59 49.99237 8.52692 1611 ft 174 kts 179°
2026-05-04 08:00 49.97954 8.52777 2008 ft 193 kts 180°
2026-05-04 08:00 49.96535 8.52872 2331 ft 213 kts 180°
2026-05-04 08:00 49.94984 8.52978 2717 ft 236 kts 179°
2026-05-04 08:02 49.82192 8.53868 8561 ft 276 kts 180°
2026-05-04 08:02 49.80268 8.53998 9446 ft 278 kts 180°
2026-05-04 08:02 49.78322 8.54122 10257 ft 281 kts 182°
2026-05-04 08:03 49.76349 8.53919 10784 ft 295 kts 187°
2026-05-04 08:03 49.74253 8.53640 11012 ft 318 kts 187°
2026-05-04 08:03 49.71975 8.53325 11184 ft 340 kts 187°
2026-05-04 08:03 49.69560 8.52991 11588 ft 353 kts 187°
2026-05-04 08:04 49.67099 8.52661 12256 ft 358 kts 186°
2026-05-04 08:04 49.64609 8.52334 12970 ft 361 kts 187°
2026-05-04 08:04 49.62093 8.52007 13657 ft 365 kts 187°
2026-05-04 08:04 49.59545 8.51674 14285 ft 369 kts 187°
2026-05-04 08:05 49.56983 8.51340 14910 ft 371 kts 186°
2026-05-04 08:05 49.54394 8.51000 15532 ft 373 kts 186°
2026-05-04 08:05 49.51801 8.50661 16138 ft 375 kts 186°
2026-05-04 08:05 49.49186 8.50321 16737 ft 378 kts 186°
2026-05-04 08:06 49.46563 8.49979 17314 ft 380 kts 186°
2026-05-04 08:06 49.43953 8.49641 17911 ft 382 kts 186°
2026-05-04 08:06 49.41259 8.49290 18467 ft 384 kts 187°
2026-05-04 08:06 49.38592 8.48941 18953 ft 387 kts 187°
2026-05-04 08:08 49.19380 8.46435 22127 ft 406 kts 187°
2026-05-04 08:08 49.16559 8.46060 22543 ft 408 kts 187°
2026-05-04 08:10 48.93738 8.40350 25442 ft 423 kts 195°
2026-05-04 08:11 48.90868 8.39348 25785 ft 425 kts 195°
2026-05-04 08:11 48.85086 8.37347 26428 ft 428 kts 195°
2026-05-04 08:11 48.82171 8.36343 26737 ft 430 kts 195°
2026-05-04 08:12 48.79252 8.35337 27052 ft 431 kts 195°
2026-05-04 08:12 48.76367 8.34326 27325 ft 431 kts 195°
2026-05-04 08:12 48.73442 8.33265 27551 ft 433 kts 195°
2026-05-04 08:12 48.70514 8.32189 27815 ft 435 kts 195°
2026-05-04 08:13 48.67570 8.31101 28183 ft 434 kts 195°
2026-05-04 08:13 48.64648 8.30019 28614 ft 433 kts 195°
2026-05-04 08:13 48.61721 8.28940 29032 ft 431 kts 195°
2026-05-04 08:13 48.58814 8.27878 29462 ft 430 kts 195°
2026-05-04 08:14 48.55910 8.26821 29880 ft 429 kts 195°
2026-05-04 08:14 48.53013 8.25769 30293 ft 427 kts 195°
2026-05-04 08:14 48.50133 8.24728 30669 ft 425 kts 195°
2026-05-04 08:16 48.30253 8.17502 33201 ft 415 kts 197°
2026-05-04 08:16 48.27453 8.16482 33574 ft 413 kts 197°
2026-05-04 08:16 48.24702 8.15315 33933 ft 409 kts 203°
2026-05-04 08:17 48.22148 8.13614 34238 ft 406 kts 208°
2026-05-04 08:17 48.19613 8.11727 34507 ft 406 kts 208°
2026-05-04 08:17 48.17086 8.09848 34777 ft 406 kts 208°
2026-05-04 08:17 48.14553 8.07971 34971 ft 406 kts 208°
2026-05-04 08:19 47.94026 7.92891 35036 ft 412 kts 208°
2026-05-04 08:20 47.88875 7.89123 35042 ft 413 kts 208°
2026-05-04 08:20 47.83711 7.85357 35046 ft 413 kts 208°
2026-05-04 08:21 47.78554 7.81607 35049 ft 413 kts 208°
2026-05-04 08:21 47.73397 7.77851 35041 ft 412 kts 208°
2026-05-04 08:22 47.68278 7.74129 35040 ft 412 kts 208°
2026-05-04 08:24 47.47615 7.59236 35042 ft 414 kts 208°
2026-05-04 08:24 47.42427 7.55512 35048 ft 414 kts 208°
2026-05-04 08:25 47.37246 7.51819 35051 ft 413 kts 208°
2026-05-04 08:25 47.32068 7.48127 35045 ft 415 kts 207°
2026-05-04 08:27 47.12928 7.30461 35060 ft 408 kts 231°
2026-05-04 08:28 47.09395 7.23932 35037 ft 408 kts 231°
2026-05-04 08:28 47.05853 7.17427 35047 ft 408 kts 231°
2026-05-04 08:29 47.02308 7.10938 35047 ft 408 kts 231°
2026-05-04 08:31 46.87399 6.86116 35027 ft 408 kts 219°
2026-05-04 08:33 46.69797 6.65207 35012 ft 409 kts 220°
2026-05-04 08:35 46.52115 6.44372 35058 ft 409 kts 219°
2026-05-04 08:35 46.47691 6.39176 35058 ft 409 kts 219°
2026-05-04 08:37 46.32217 6.21144 35057 ft 408 kts 219°
2026-05-04 08:38 46.27757 6.16070 35418 ft 408 kts 214°
2026-05-04 08:38 46.25278 6.14067 35643 ft 409 kts 205°
2026-05-04 08:38 46.22589 6.12701 35857 ft 412 kts 196°
2026-05-04 08:40 46.02594 6.08148 37057 ft 417 kts 192°
2026-05-04 08:40 45.99723 6.07513 37049 ft 418 kts 192°
2026-05-04 08:41 45.93931 6.06237 37056 ft 423 kts 192°
2026-05-04 08:41 45.88110 6.04952 37062 ft 423 kts 192°
2026-05-04 08:42 45.82340 6.03371 37057 ft 422 kts 196°
2026-05-04 08:42 45.76686 6.01388 37054 ft 421 kts 197°
2026-05-04 08:43 45.71003 5.99318 37060 ft 422 kts 197°
2026-05-04 08:43 45.65304 5.97286 37064 ft 422 kts 197°
2026-05-04 08:44 45.59591 5.95309 37064 ft 423 kts 197°
2026-05-04 08:46 45.37712 5.87684 37069 ft 422 kts 197°
2026-05-04 08:46 45.31996 5.85717 37075 ft 423 kts 197°
2026-05-04 08:47 45.26282 5.83746 37070 ft 422 kts 197°
2026-05-04 08:47 45.20580 5.81771 37068 ft 421 kts 197°
2026-05-04 08:48 45.14885 5.79809 37077 ft 421 kts 197°
2026-05-04 08:48 45.09198 5.77859 37078 ft 421 kts 197°
2026-05-04 08:49 45.03512 5.75911 37071 ft 421 kts 197°
2026-05-04 08:50 44.83691 5.69147 37076 ft 418 kts 197°
2026-05-04 08:51 44.78043 5.67231 37069 ft 417 kts 197°
2026-05-04 08:51 44.72402 5.65309 37069 ft 417 kts 197°
2026-05-04 08:52 44.66750 5.63394 37074 ft 418 kts 197°
2026-05-04 08:52 44.61087 5.61492 37084 ft 418 kts 197°
2026-05-04 08:54 44.38907 5.52108 37068 ft 419 kts 205°
2026-05-04 08:55 44.33499 5.49014 37068 ft 421 kts 205°
2026-05-04 08:55 44.28072 5.45917 37039 ft 422 kts 205°
2026-05-04 09:01 43.70835 5.13658 37031 ft 422 kts 206°
2026-05-04 09:01 43.65395 5.10627 37043 ft 421 kts 206°
2026-05-04 09:02 43.59968 5.07604 37044 ft 420 kts 206°
2026-05-04 09:02 43.54542 5.04594 37047 ft 420 kts 206°
2026-05-04 09:03 43.49115 5.01587 37041 ft 420 kts 206°
2026-05-04 09:03 43.43708 4.98587 37043 ft 419 kts 206°
2026-05-04 09:04 43.38303 4.95602 37043 ft 418 kts 206°
2026-05-04 09:04 43.32934 4.92646 37063 ft 418 kts 205°
2026-05-04 09:05 43.27543 4.89687 37042 ft 417 kts 206°
2026-05-04 09:05 43.22154 4.86731 37039 ft 417 kts 205°
2026-05-04 09:06 43.16769 4.83789 37038 ft 416 kts 205°
2026-05-04 09:08 42.95948 4.70354 37023 ft 412 kts 212°
2026-05-04 09:08 42.90937 4.66555 37010 ft 412 kts 212°
2026-05-04 09:09 42.85923 4.62767 37020 ft 412 kts 212°
2026-05-04 09:09 42.80904 4.58989 37023 ft 411 kts 212°
2026-05-04 09:10 42.75894 4.55216 37027 ft 412 kts 212°
2026-05-04 09:10 42.70885 4.51443 37022 ft 411 kts 212°
2026-05-04 09:11 42.65872 4.47678 37025 ft 412 kts 212°
2026-05-04 09:11 42.60854 4.43927 37023 ft 412 kts 212°
2026-05-04 09:12 42.55831 4.40175 37015 ft 412 kts 212°
2026-05-04 09:14 42.35768 4.25242 37005 ft 411 kts 212°
2026-05-04 09:14 42.30755 4.21535 36989 ft 410 kts 212°
2026-05-04 09:15 42.25744 4.17842 37020 ft 410 kts 212°
2026-05-04 09:15 42.20748 4.14158 37016 ft 409 kts 212°
2026-05-04 09:17 41.98322 3.97709 37006 ft 406 kts 212°
2026-05-04 09:18 41.93322 3.94163 37003 ft 409 kts 207°
2026-05-04 09:18 41.87746 3.92268 36994 ft 417 kts 196°
2026-05-04 09:19 41.82023 3.90970 36996 ft 417 kts 196°
2026-05-04 09:19 41.76315 3.89665 37006 ft 416 kts 196°
2026-05-04 09:20 41.70603 3.88344 36986 ft 416 kts 196°
2026-05-04 09:20 41.64908 3.87022 36993 ft 416 kts 197°
2026-05-04 09:21 41.59200 3.85706 37001 ft 416 kts 196°
2026-05-04 09:21 41.53503 3.84393 37007 ft 416 kts 197°
2026-05-04 09:22 41.47836 3.83090 36985 ft 416 kts 197°
2026-05-04 09:22 41.42131 3.81795 37000 ft 416 kts 197°
2026-05-04 09:23 41.36427 3.80496 37019 ft 415 kts 197°
2026-05-04 09:23 41.30740 3.79200 37021 ft 415 kts 196°
2026-05-04 09:25 41.11134 3.73532 37017 ft 406 kts 207°
2026-05-04 09:25 41.08504 3.72169 37020 ft 406 kts 207°
2026-05-04 09:26 41.03236 3.69458 36993 ft 406 kts 207°
2026-05-04 09:26 40.97963 3.66759 37001 ft 406 kts 207°
2026-05-04 09:27 40.92688 3.64054 37008 ft 407 kts 206°
2026-05-04 09:27 40.87415 3.61354 37012 ft 406 kts 206°
2026-05-04 09:28 40.82144 3.58651 36992 ft 407 kts 207°
2026-05-04 09:28 40.76895 3.55973 36998 ft 407 kts 206°
2026-05-04 09:29 40.71620 3.53281 36592 ft 404 kts 206°
2026-05-04 09:29 40.69005 3.51950 35377 ft 402 kts 206°
2026-05-04 09:29 40.66387 3.50617 34095 ft 404 kts 206°
2026-05-04 09:30 40.63766 3.49282 32577 ft 405 kts 206°
2026-05-04 09:30 40.61136 3.47950 31520 ft 400 kts 206°
2026-05-04 09:30 40.58584 3.46669 30761 ft 386 kts 206°
2026-05-04 09:30 40.56076 3.45401 29827 ft 387 kts 206°
2026-05-04 09:31 40.53550 3.44116 28786 ft 390 kts 206°
2026-05-04 09:31 40.50989 3.42807 27824 ft 398 kts 206°
2026-05-04 09:31 40.48389 3.41472 26792 ft 403 kts 205°
2026-05-04 09:31 40.45711 3.40267 25712 ft 413 kts 199°
2026-05-04 09:32 40.43840 3.39747 25005 ft 418 kts 193°
2026-05-04 09:32 40.39887 3.39458 23595 ft 432 kts 183°
2026-05-04 09:34 40.20236 3.40604 18683 ft 405 kts 182°
2026-05-04 09:34 40.17470 3.40759 18485 ft 386 kts 182°
2026-05-04 09:34 40.14926 3.40911 18369 ft 358 kts 182°
2026-05-04 09:34 40.12526 3.41060 18224 ft 334 kts 182°
2026-05-04 09:35 40.10255 3.41196 17737 ft 322 kts 182°
2026-05-04 09:35 40.08045 3.41317 17380 ft 316 kts 183°
2026-05-04 09:35 40.05852 3.41431 17119 ft 314 kts 183°
2026-05-04 09:35 40.03669 3.41545 16854 ft 315 kts 182°
2026-05-04 09:37 39.88565 3.42387 14642 ft 307 kts 182°
2026-05-04 09:37 39.86439 3.42510 14291 ft 305 kts 182°
2026-05-04 09:38 39.84332 3.42630 13686 ft 302 kts 181°
2026-05-04 09:38 39.82233 3.42748 13008 ft 300 kts 181°
2026-05-04 09:38 39.80162 3.42865 12365 ft 296 kts 181°
2026-05-04 09:38 39.78117 3.42982 11792 ft 291 kts 181°
2026-05-04 09:39 39.76108 3.43094 11313 ft 288 kts 181°
2026-05-04 09:39 39.74118 3.43203 10839 ft 284 kts 181°
2026-05-04 09:39 39.72168 3.42928 10393 ft 282 kts 202°
2026-05-04 09:39 39.70526 3.41618 10034 ft 277 kts 225°
2026-05-04 09:40 39.69480 3.39538 9600 ft 276 kts 250°
2026-05-04 09:40 39.69090 3.37090 9095 ft 276 kts 260°
2026-05-04 09:40 39.68835 3.34648 8580 ft 271 kts 261°
2026-05-04 09:40 39.68594 3.32238 8138 ft 268 kts 261°
2026-05-04 09:41 39.68357 3.29845 7700 ft 266 kts 261°
2026-05-04 09:42 39.66640 3.13291 4896 ft 259 kts 260°
2026-05-04 09:43 39.66393 3.10971 4460 ft 259 kts 260°
2026-05-04 09:43 39.66155 3.08690 4239 ft 249 kts 260°
2026-05-04 09:43 39.65928 3.06515 4109 ft 237 kts 260°
2026-05-04 09:43 39.65715 3.04457 4008 ft 225 kts 261°
2026-05-04 09:44 39.65509 3.02492 3910 ft 215 kts 260°
2026-05-04 09:44 39.65308 3.00607 3815 ft 207 kts 260°
2026-05-04 09:44 39.65115 2.98797 3722 ft 199 kts 259°
2026-05-04 09:46 39.61393 2.88586 2204 ft 154 kts 237°
2026-05-04 09:46 39.60851 2.87435 2010 ft 146 kts 237°
2026-05-04 09:46 39.60331 2.86329 1825 ft 141 kts 238°
2026-05-04 09:47 39.59822 2.85250 1635 ft 139 kts 237°
2026-05-04 09:47 39.59314 2.84168 1437 ft 139 kts 238°
2026-05-04 09:49 39.55727 2.76575 142 ft 140 kts 239°
2026-05-04 09:49 39.55242 2.75530 37 ft 121 kts 238°
2026-05-04 09:49 39.54885 2.74775 37 ft 84 kts 238°
2026-05-04 09:51 39.54625 2.73571 38 ft 5 kts 284°
2026-05-04 09:51 39.54643 2.73538 37 ft 4 kts 326°
2026-05-04 09:51 39.54664 2.73522 36 ft 3 kts 330°
2026-05-04 09:51 39.54681 2.73510 38 ft 4 kts 329°
2026-05-04 09:52 39.54718 2.73481 37 ft 7 kts 327°
2026-05-04 09:52 39.54720 2.73448 36 ft 3 kts 250°
2026-05-04 09:52 39.54710 2.73424 37 ft 3 kts 240°
2026-05-04 09:52 39.54701 2.73404 38 ft 2 kts 240°
2026-05-04 09:53 39.54695 2.73389 38 ft 1 kts 240°
2026-05-04 09:53 39.54694 2.73388 38 ft 0 kts 240°